Regional Weather Roundup
Issued by NWS

Home | Current Version | Previous Version | Graphics & Text | Print | Product List | Glossary On
Versions: 1 2 3 4 5 6 7 8 9 10 11 12 13 14 15 16 17 18 19 20 21 22 23 24 25 26 27 28 29 30 31 32 33 34 35 36 37 38 39 40 41 42 43 44 45 46 47 48 49 50
000
ASUS43 KOAX 191102
RWRNE

WEATHER ROUNDUP FOR NEBRASKA
NATIONAL WEATHER SERVICE OMAHA NE
600 AM CDT SAT APR 19 2014

NOTES: SATELLITE DATA IS BEING USED TO AUGMENT CLOUD COVER ABOVE
       12000 FEET.
       "FAIR" INDICATES FEW OR NO CLOUDS BELOW 12,000 FEET WITH NO
       SIGNIFICANT WEATHER AND/OR OBSTRUCTIONS TO VISIBILITY.

  * THESE STATIONS DO NOT REPORT WEATHER SUCH AS RAIN...SNOW OR FOG.

NEZ001>004-019>022-054>056-191200-
NEBRASKA PANHANDLE

CITY           SKY/WX    TMP DP  RH WIND       PRES   REMARKS
SCOTTSBLUFF    CLOUDY    49  39  68 N14       29.96R
ALLIANCE       CLOUDY    47  38  71 NE17      29.94R
CHADRON        CLOUDY    44  35  70 CALM      29.96R
KIMBALL        CLOUDY    55  32  42 NW13      29.93R
SIDNEY         CLOUDY    56  34  43 NW18      29.91R
$$

NEZ057>060-069>072-079>082-191200-
SOUTHWEST NEBRASKA

CITY           SKY/WX    TMP DP  RH WIND       PRES   REMARKS
NORTH PLATTE   CLOUDY    50  43  77 SE5       29.90F
IMPERIAL       CLOUDY    47  41  80 SE8       29.85F
LEXINGTON      MOCLDY    52  46  80 S14       29.90S
MCCOOK         CLOUDY    52  45  77 S12       29.87S
OGALLALA       CLOUDY    49  42  75 E3        29.88R
$$

NEZ005>010-023>029-035>040-094-191200-
NORTH CENTRAL NEBRASKA

CITY           SKY/WX    TMP DP  RH WIND       PRES   REMARKS
VALENTINE      MOCLDY    50  38  63 N14       29.93R
AINSWORTH      PTCLDY    50  40  69 N10       29.94R
BROKEN BOW     CLOUDY    51  44  77 S13G23    29.90R
O`NEILL        CLOUDY    54  41  61 SW6       29.93R
ORD            CLOUDY    52  43  71 S10       29.91R
THEDFORD       MOCLDY    53  41  65 NW3       29.92R
$$

NEZ041-046>049-061>064-073>077-083>087-191200-
SOUTH CENTRAL NEBRASKA

CITY           SKY/WX    TMP DP  RH WIND       PRES   REMARKS
GRAND ISLAND   MOCLDY    53  41  63 S17G25    29.94S
AURORA         MOCLDY    52  40  64 S18       29.95F
HASTINGS       MOCLDY    53  41  63 S15       29.94F
HEBRON         MOCLDY    53  40  61 S14       30.01F
HOLDREGE       MOCLDY    52  45  76 S16       29.91F
KEARNEY *      MOCLDY    52  45  76 S21       29.91F
YORK           MOCLDY    54  39  58 S20G26    29.97F
$$

NEZ011>018-030>034-042>045-191200-
NORTHEAST NEBRASKA

CITY           SKY/WX    TMP DP  RH WIND       PRES   REMARKS
NORFOLK        MOCLDY    53  39  59 S15       29.93F
ALBION         MOCLDY    52  40  64 S13       29.92F
BLAIR          PTCLDY    54  40  59 S15       30.03S
COLUMBUS *     PTCLDY    54  37  54 S15G23    29.97F
FREMONT        MOCLDY    53  41  64 SE14      30.02R
TEKAMAH        PTCLDY    53  40  61 S13       30.03S
$$

NEZ050>053-065>068-078-088>093-191200-
SOUTHEAST NEBRASKA

CITY           SKY/WX    TMP DP  RH WIND       PRES   REMARKS
LINCOLN        CLEAR     54  39  57 S14       30.03R
OMAHA EPPLEY   PTCLDY    55  41  59 S16       30.05R
BEATRICE       PTCLDY    53  40  61 S13       30.04F
FALLS CITY     CLEAR     50  41  71 S10       30.08F
NEBRASKA CITY  PTCLDY    51  40  67 S14       30.07R
PLATTSMOUTH    PTCLDY    53  39  58 S14       30.06R
$$

NEZ044-045-051>053-067-191200-
OMAHA AREA

CITY           SKY/WX    TMP DP  RH WIND       PRES   REMARKS
OMAHA EPPLEY   PTCLDY    55  41  59 S16       30.05R
BLAIR          PTCLDY    54  40  59 S15       30.03S
FREMONT        MOCLDY    53  41  64 SE14      30.02R
MILLARD        MOCLDY    53  40  62 SE8       30.05R
OFFUTT AFB     PTCLDY    53  43  68 SE13      30.06R
PLATTSMOUTH    PTCLDY    53  39  58 S14       30.06R
WAHOO          FAIR      51  40  65 S16       30.02R
$$



USA.gov is the U.S. government's official web portal to all federal, state and local government web resources and services.